Location: Cuiry
(49.3858°N, 3.7708°E)
Time: 06:08:20
(UTC+00:00)

USA 238 DEB - Pass Details

Date: 12 January 2026
Orbit: 883 x 1328 km, 63.4° (Epoch: 10 January)

Event Time Altitude Azimuth Distance (km) Brightness Sun altitude
Rises 18:37:18 0° 317° (NW) 3,955 7.2 -23.2°
Reaches altitude 10° 18:39:54 10° 314° (NW) 3,054 6.6 -23.6°
Maximum altitude 18:47:13 66° 235° (SW) 1,334 4.3 -24.8°
Drops below altitude 10° 18:55:10 10° 155° (SSE) 3,307 6.0 -26.1°
Enters shadow 18:56:31 - 154° (SSE) 3,763 6.3 -26.3°
